Regional Weather Roundup
Issued by NWS

Home | Current Version | Previous Version | Graphics & Text | Print | Product List | Glossary On
Versions: 1 2 3 4 5 6 7 8 9 10 11 12 13 14 15 16 17 18 19 20 21 22 23 24 25 26 27 28 29 30 31 32 33 34 35 36 37 38 39 40 41 42 43 44 45 46 47 48 49 50
000
ASUS43 KLOT 191806
RWRIL

ILLINOIS REGIONAL WEATHER ROUNDUP
NATIONAL WEATHER SERVICE CHICAGO/ROMEOVILLE IL
100 PM CDT SAT APR 19 2014

NOTE: "FAIR" INDICATES FEW OR NO CLOUDS BELOW 12,000 FEET WITH NO
SIGNIFICANT WEATHER AND/OR OBSTRUCTIONS TO VISIBILITY.

* THESE STATIONS ARE NOT UNDER NWS QUALITY CONTROL. THEY ALSO MAY NOT
  REPORT WEATHER SUCH AS PRECIPITATION OR FOG.

ILZ001-002-007-009-015-016-024-191900-
NORTHWEST ILLINOIS

CITY           SKY/WX    TMP DP  RH WIND       PRES   REMARKS
MOLINE         SUNNY     69  31  24 S10G21    30.24F
6HR MIN TEMP:  37; 6HR MAX TEMP:  70;

STERLING*      MOSUNNY   66  36  32 SE14G20   30.28F
SAVANNA*       MOSUNNY   66  33  29 SE14      30.27F
$$

ILZ003-004-008-010-011-017-018-191900-
NORTH CENTRAL ILLINOIS

CITY           SKY/WX    TMP DP  RH WIND       PRES   REMARKS
ROCKFORD       PTSUNNY   63  34  33 S14       30.30F
6HR MIN TEMP:  36; 6HR MAX TEMP:  63;

FREEPORT*      MOSUNNY   64  33  32 SE15      30.30F
ROCHELLE*      MOSUNNY   63  33  32 SE14      30.30F
DE KALB*       MOSUNNY   60  34  38 SE15      30.31F
$$

ILZ005-006-012>014-019>023-191900-
NORTHEAST ILLINOIS

CITY           SKY/WX    TMP DP  RH WIND       PRES   REMARKS
CHICAGO-OHARE  PTSUNNY   58  35  42 E7        30.33F
6HR MIN TEMP:  38; 6HR MAX TEMP:  58;

CHICAGO-MIDWAY PTSUNNY   57  39  51 E9        30.33F
6HR MIN TEMP:  40; 6HR MAX TEMP:  58;

AURORA         MOSUNNY   63  36  36 SE12G17   30.31F
6HR MIN TEMP:  37; 6HR MAX TEMP:  63;

LANSING*       MOSUNNY   63  35  35 E3        30.32F
WAUKEGAN       MOSUNNY   45  35  68 SE8       30.35F
6HR MIN TEMP:  35; 6HR MAX TEMP:  45;

DUPAGE AIRPORT MOSUNNY   62  32  32 SE9       30.31F
6HR MIN TEMP:  37; 6HR MAX TEMP:  62;

KANKAKEE*      SUNNY     64  37  36 SE12G21   30.32F
WHEELING       MOSUNNY   54  38  54 VRB6      30.35F
6HR MIN TEMP:  38; 6HR MAX TEMP:  54;

MORRIS*        MOSUNNY   64  27  25 SE9       30.31F
ROMEOVILLE*    MOSUNNY   64  31  29 SE8G16    30.32S
NORTHERLY ISL    N/A     46  37  71 MISG        N/A
$$

LMZ740>746-191900-
SOUTHERN LAKE MICHIGAN

STATION/POSITION SKY/WX   TEMP    WIND        PRES    VSBY  WAVE
                          AIR SEA DIR/SP/G                  HT/PER
                          (F)     (DEG/KT/KT) (MB)    (MI)  (FT/S)
WAUKEGAN HARBOR            38     110/  4/  6 1029.5S
HARRISON CRIB              41      30/  4/  5   N/A
BURNHAM HARBOR             47      30/  6/  6   N/A
CALUMET HARBOR             46      30/  6/  9 1028.1F
MICHIGAN CITY              58     110/  9/ 14   N/A
$$

ILZ025>027-034>036-040-047-049-050-058-095>099-191900-
WEST-CENTRAL ILLINOIS

CITY           SKY/WX    TMP DP  RH WIND       PRES   REMARKS
QUINCY         SUNNY     71  41  33 SE8       30.23F
GALESBURG*     SUNNY     68  40  35 S10       30.26F
MACOMB*        SUNNY     69  37  30 SE13G18   30.28F
JACKSONVILLE*  SUNNY     71  40  32 SE9       30.26F
PITTSFIELD*    SUNNY     71  40  32 SE9       30.25F
$$

ILZ028>032-037-038-041>044-048-051>054-059>061-191900-
CENTRAL ILLINOIS

CITY           SKY/WX    TMP DP  RH WIND       PRES   REMARKS
PONTIAC        SUNNY     68  36  30 E9G16     30.30F
BLOOMINGTON    SUNNY     67  32  27 SE10G17   30.30F
DECATUR        SUNNY     69  33  26 SE5       30.28F
PEORIA         SUNNY     69  34  27 VRB6G16   30.27F
6HR MIN TEMP:  40; 6HR MAX TEMP:  69;

LACON*         SUNNY     67  34  29 S8G16     30.28F
LINCOLN*       SUNNY     72  36  26 SE7       30.26F
SPRINGFIELD    SUNNY     70  39  32 SE8       30.27F
6HR MIN TEMP:  39; 6HR MAX TEMP:  71;

TAYLORVILLE    SUNNY     68  39  34 SE8       30.27F
$$

ILZ033-039-045-046-055>057-062-063-191900-
EAST-CENTRAL ILLINOIS

CITY           SKY/WX    TMP DP  RH WIND       PRES   REMARKS
CHAMPAIGN      SUNNY     69  33  26 SE8       30.29F
RANTOUL*       SUNNY     68  32  26 SE9       30.30F
MATTOON        SUNNY     68  29  23 E5        30.28F
PARIS*         SUNNY     68  36  31 E3        30.29F
$$

ILZ079-100>102-191900-
SOUTHWEST ILLINOIS

CITY           SKY/WX    TMP DP  RH WIND       PRES   REMARKS
BELLEVILLE     SUNNY     70  47  42 SE6       30.25F
CAHOKIA*       SUNNY     72  44  36 SE7       30.25F
SPARTA*        SUNNY     70  43  37 CALM      30.26F
$$

ILZ064>066-069>071-074>076-080>082-084>086-088>090-092>094-191900-
SOUTH-CENTRAL ILLINOIS

CITY           SKY/WX    TMP DP  RH WIND       PRES   REMARKS
CARBONDALE     SUNNY     72  44  36 E7        30.24F
6HR MIN TEMP:  44; 6HR MAX TEMP:  72;

CAIRO*         SUNNY     76  42  29 NE8       30.23F
MARION         SUNNY     73  45  35 E12       30.25F
MT. VERNON     SUNNY     72  45  37 E8        30.27F
CENTRALIA*       N/A     71  40  32 CALM      30.26F
SALEM*         SUNNY     71  45  39 E6        30.27F
METROPOLIS*    SUNNY     74  35  23 NE5       30.21F
$$

ILZ067-068-072-073-078-083-087-091-191900-
SOUTHEAST ILLINOIS

CITY           SKY/WX    TMP DP  RH WIND       PRES   REMARKS
FAIRFIELD*     SUNNY     72  46  40 CALM      30.26F
HARRISBURG*    SUNNY     72  44  36 E8        30.26F
ROBINSON*      SUNNY     72  38  29 E9        30.28F
CARMI*         SUNNY     72  47  40 NE5       30.25F
$$

ABBREVIATIONS USED IN REMARKS
   TC - TEMPERATURE IN CELSIUS
  WCI - WIND CHILL INDEX
   HX - HEAT INDEX
  VSB - VISIBILITY
$$




USA.gov is the U.S. government's official web portal to all federal, state and local government web resources and services.